San Juan, PR

8:10 PM AST on July 24, 2017 (GMT -0400)
Luis Munoz Marin International

Weather History for TJSJ - June, 2013

Change the Weather History Date:

Wednesday, June 26, 2013

  Actual Average Record
Temperature  
Mean Temperature 81 °F 84 °F  
Max Temperature 87 °F 89 °F 95 °F (1983)
Min Temperature 75 °F 78 °F 71 °F (1913)
Degree Days  
Heating Degree Days 0 0  
Month to date heating degree days 0 0  
Since 1 June heating degree days 0 0  
Since 1 July heating degree days 0 0  
Cooling Degree Days 16 18  
Month to date cooling degree days 449 468  
Year to date cooling degree days 2697 2633  
Since 1 June cooling degree days 449 468  
Growing Degree Days 31 (Base 50)    
Moisture  
Dew Point 74 °F    
Average Humidity 81    
Maximum Humidity 94    
Minimum Humidity 68    
Precipitation  
Precipitation 0.87 in 0.13 in 1.32 in (1931)
Month to date precipitation 10.88 3.86  
Year to date precipitation 35.41 22.54  
Sea Level Pressure  
Sea Level Pressure 30.02 in    
Wind  
Wind Speed 7 mph (ESE)    
Max Wind Speed 24 mph    
Max Gust Speed 30 mph    
Visibility 8 miles    
Events Rain , Thunderstorm    
T = Trace of Precipitation, MM = Missing Value Source: NWS Daily Summary

Daily Weather History Graph

Daily Weather History Graph

Search for Another Location

Airport or City:

Trip Planner

Search our weather history database for the weather conditions in past years. The results will help you decide how hot, cold, wet, or windy it might be!

Date:

Astronomy

Jun. 26, 2013 Rise Set
Actual Time 5:49 AM AST 7:03 PM AST
Civil Twilight 5:25 AM AST 7:28 PM AST
Nautical Twilight 4:56 AM AST 7:56 PM AST
Astronomical Twilight 4:27 AM AST 8:26 PM AST
Moon 10:00 PM AST (6/26) 9:06 AM AST (6/26)
Length of Visible Light 14h 02m
Length of Day
13h 14m
Waning Gibbous, 85% of the Moon is Illuminated
Jun 26
Waning Gibbous
Jun 30
Last Quarter
Jul 8
New
Jul 15
First Quarter
Jul 22
Full

Hourly Weather History & Observations

Time (AST) Temp. Heat Index Dew Point Humidity Pressure Visibility Wind Dir Wind Speed Gust Speed Precip Events Conditions
12:56 AM 78.1 °F - 73.9 °F 87% 30.01 in 10.0 mi ESE 3.5 mph - N/A   Mostly Cloudy
1:56 AM 78.1 °F - 75.0 °F 90% 29.99 in 10.0 mi ESE 5.8 mph - N/A   Mostly Cloudy
2:56 AM 78.1 °F - 75.0 °F 90% 29.98 in 10.0 mi East 4.6 mph - 0.00 in   Mostly Cloudy
3:56 AM 78.1 °F - 75.9 °F 93% 29.98 in 10.0 mi Calm Calm - 0.01 in   Mostly Cloudy
4:56 AM 78.1 °F - 75.0 °F 90% 29.99 in 9.0 mi East 4.6 mph - 0.01 in Rain Light Rain
5:56 AM 77.0 °F - 73.9 °F 90% 30.00 in 10.0 mi ESE 3.5 mph - 0.00 in   Mostly Cloudy
6:56 AM 79.0 °F - 75.0 °F 88% 30.01 in 9.0 mi ESE 6.9 mph - 0.00 in Rain Light Rain
7:19 AM 77.0 °F - 75.2 °F 94% 30.04 in 2.5 mi East 16.1 mph 20.7 mph 0.04 in Rain Rain
7:56 AM 75.9 °F - 73.9 °F 94% 30.04 in 6.0 mi East 11.5 mph - 0.09 in Rain Light Rain
8:56 AM 78.1 °F - 75.0 °F 90% 30.04 in 10.0 mi Calm Calm - 0.01 in   Mostly Cloudy
9:56 AM 81.0 °F 86.2 °F 73.9 °F 79% 30.04 in 10.0 mi Calm Calm - N/A   Mostly Cloudy
10:56 AM 86.0 °F 96.9 °F 77.0 °F 74% 30.03 in 10.0 mi East 15.0 mph 19.6 mph N/A   Mostly Cloudy
11:56 AM 84.0 °F 91.9 °F 75.0 °F 74% 30.03 in 9.0 mi ESE 6.9 mph - 0.00 in   Mostly Cloudy
12:56 PM 82.9 °F 90.2 °F 75.0 °F 77% 30.03 in 10.0 mi East 11.5 mph - 0.03 in   Mostly Cloudy
1:56 PM 87.1 °F 97.3 °F 75.9 °F 69% 30.00 in 10.0 mi East 15.0 mph - N/A   Mostly Cloudy
2:56 PM 80.1 °F 85.1 °F 75.0 °F 85% 30.02 in 5.0 mi East 15.0 mph 23.0 mph 0.09 in Rain , Thunderstorm Light Thunderstorms and Rain
3:22 PM 78.8 °F - 73.4 °F 83% 30.02 in 5.0 mi East 20.7 mph 26.5 mph 0.02 in Rain Light Rain
3:25 PM 77.0 °F - 73.4 °F 89% 30.03 in 2.0 mi East 20.7 mph 26.5 mph 0.02 in Rain Heavy Rain
3:56 PM 75.9 °F - 73.0 °F 91% 30.03 in 1.5 mi ESE 12.7 mph 21.9 mph 0.24 in Rain Heavy Rain
4:16 PM 75.2 °F - 73.4 °F 94% 30.03 in 3.0 mi ESE 6.9 mph - 0.23 in Rain Rain
4:56 PM 75.0 °F - 72.0 °F 90% 30.03 in 7.0 mi East 5.8 mph - 0.34 in Rain Light Rain
5:56 PM 75.0 °F - 72.0 °F 90% 30.02 in 10.0 mi East 9.2 mph - 0.04 in   Mostly Cloudy
6:56 PM 75.0 °F - 72.0 °F 90% 30.04 in 10.0 mi East 6.9 mph - 0.00 in Rain Light Rain
7:56 PM 75.0 °F - 72.0 °F 90% 30.03 in 10.0 mi SE 5.8 mph - 0.01 in   Scattered Clouds
8:56 PM 75.0 °F - 71.1 °F 87% 30.02 in 10.0 mi South 4.6 mph - N/A   Scattered Clouds
9:56 PM 75.9 °F - 71.1 °F 85% 30.03 in 10.0 mi Calm Calm - N/A   Scattered Clouds
10:56 PM 75.9 °F - 72.0 °F 87% 30.03 in 10.0 mi Calm Calm - N/A   Scattered Clouds
11:56 PM 75.9 °F - 72.0 °F 87% 30.03 in 10.0 mi WSW 6.9 mph - N/A   Scattered Clouds